Date String (YYYY-MM-DD hh:mm:ss) UTC,Instrument flags,Ambient pressure (hPa),Sample flow (lpm),Bypass flow (lpm),Sample temperature (°C),Ambient temperature (°C),ASC tube jacket temperature (°C),LED temperature (°C),Box temperature (°C),Sample RH (%),Span deviation,Mass concentration (μg/m³),Mass concentration (μg/m³),Mass concentration (μg/m³)
DateTimeUTC,F1_M11,P_M11,Q1_M11,Q2_M11,T1_M11,T2_M11,T3_M11,T4_M11,T5_M11,U1_M11,ZSPAN_M11,X0_M11,X2_M11,X1_M11
2021-10-23 11:00:00,,0819.5,4.99,0.00,27.2,26.5,00.0,36.3,29.0,07.8,0000.0,0007.54,0002.52,0001.59
2021-10-23 11:01:00,,0819.5,5.01,0.00,27.2,26.4,00.0,36.3,29.0,07.8,0000.0,0008.07,0002.62,0001.62
2021-10-23 11:02:00,,0819.5,5.00,0.00,27.2,26.4,00.0,36.3,29.0,07.5,0000.0,0008.52,0002.72,0001.67
2021-10-23 11:03:00,,0819.5,5.00,0.00,27.1,26.4,00.0,36.3,28.9,07.5,0000.0,0009.21,0002.89,0001.72
2021-10-23 11:04:00,,0819.5,4.98,0.00,27.1,26.3,00.0,36.3,28.9,07.6,0000.0,0009.02,0002.89,0001.73
2021-10-23 11:05:00,,0819.5,5.00,0.00,27.1,26.3,00.0,36.3,28.8,07.6,0000.0,0008.93,0002.82,0001.72
2021-10-23 11:06:00,,0819.5,5.01,0.00,27.1,26.3,00.0,36.3,28.8,07.5,0000.0,0008.74,0002.72,0001.69
2021-10-23 11:07:00,,0819.5,4.99,0.00,27.1,26.3,00.0,36.3,28.8,07.4,0000.0,0008.66,0002.67,0001.64
2021-10-23 11:08:00,,0819.5,4.99,0.00,27.0,26.3,00.0,36.2,28.8,07.2,0000.0,0008.50,0002.64,0001.60
2021-10-23 11:09:00,,0819.5,5.01,0.00,27.0,26.3,00.0,36.2,28.8,07.1,0000.0,0008.22,0002.54,0001.53
2021-10-23 11:10:00,,0819.5,4.99,0.00,27.0,26.3,00.0,36.2,28.8,07.1,0000.0,0008.26,0002.40,0001.45
2021-10-23 11:11:00,,0819.5,5.01,0.00,27.0,26.2,00.0,36.2,28.8,07.2,0000.0,0007.50,0002.27,0001.39
2021-10-23 11:12:00,,0819.5,5.00,0.00,27.0,26.2,00.0,36.2,28.8,07.3,0000.0,0006.78,0002.16,0001.33
2021-10-23 11:13:00,,0819.5,5.01,0.00,27.0,26.2,00.0,36.2,28.8,07.2,0000.0,0006.45,0002.09,0001.28
2021-10-23 11:14:00,,0819.4,4.99,0.00,27.0,26.2,00.0,36.2,28.8,06.9,0000.0,0005.84,0001.94,0001.24
2021-10-23 11:15:00,,0819.4,5.00,0.00,27.0,26.2,00.0,36.1,28.7,07.0,0000.0,0004.82,0001.78,0001.17
2021-10-23 11:16:00,,0819.5,5.00,0.00,26.9,26.2,00.0,36.1,28.7,06.9,0000.0,0005.09,0001.72,0001.12
2021-10-23 11:17:00,,0819.6,5.00,0.00,26.9,26.2,00.0,36.1,28.7,06.8,0000.0,0006.44,0001.65,0001.06
2021-10-23 11:18:00,,0819.5,5.00,0.00,26.9,26.2,00.0,36.1,28.7,07.1,0000.0,0006.28,0001.60,0001.04
2021-10-23 11:19:00,,0819.5,5.00,0.00,26.9,26.2,00.0,36.1,28.7,07.0,0000.0,0006.25,0001.56,0001.02
2021-10-23 11:20:00,,0819.5,5.00,0.00,26.9,26.2,00.0,36.1,28.7,06.9,0000.0,0006.13,0001.51,0001.00
2021-10-23 11:21:00,,0819.4,5.00,0.00,26.9,26.2,00.0,36.1,28.7,06.8,0000.0,0005.21,0001.46,0000.99
2021-10-23 11:22:00,,0819.5,5.00,0.00,27.0,26.2,00.0,36.1,28.8,06.8,0000.0,0005.13,0001.43,0000.97
2021-10-23 11:23:00,,0819.6,5.01,0.00,27.0,26.3,00.0,36.1,28.8,06.9,0000.0,0005.13,0001.41,0000.96
2021-10-23 11:24:00,,0819.7,5.00,0.00,27.0,26.3,00.0,36.1,28.8,07.1,0000.0,0005.23,0001.39,0000.96
2021-10-23 11:25:00,,0819.6,4.99,0.00,27.0,26.3,00.0,36.1,28.8,07.1,0000.0,0005.04,0001.42,0000.98
2021-10-23 11:26:00,,0819.5,5.00,0.00,27.0,26.3,00.0,36.1,28.7,07.0,0000.0,0005.08,0001.43,0001.00
2021-10-23 11:27:00,,0819.6,5.01,0.00,26.9,26.2,00.0,36.1,28.7,06.9,0000.0,0004.56,0001.44,0000.99
2021-10-23 11:28:00,,0819.5,5.00,0.00,26.9,26.3,00.0,36.1,28.7,06.9,0000.0,0003.24,0001.45,0000.99
2021-10-23 11:29:00,,0819.6,5.00,0.00,26.9,26.3,00.0,36.1,28.7,07.0,0000.0,0003.10,0001.39,0000.97
2021-10-23 11:30:00,,0819.5,4.99,0.00,26.9,26.2,00.0,36.1,28.7,06.8,0000.0,0002.99,0001.36,0000.96
2021-10-23 11:31:00,,0819.3,4.99,0.00,26.9,26.2,00.0,36.1,28.7,06.8,0000.0,0003.07,0001.39,0000.95
2021-10-23 11:32:00,,0819.5,5.00,0.00,26.9,26.2,00.0,36.1,28.7,07.0,0000.0,0003.22,0001.39,0000.94
2021-10-23 11:33:00,,0819.4,5.01,0.00,26.9,26.2,00.0,36.1,28.7,07.6,0000.0,0003.99,0001.49,0000.99
2021-10-23 11:34:00,,0819.4,5.00,0.00,26.9,26.2,00.0,36.1,28.7,07.2,0000.0,0006.04,0001.55,0001.01
2021-10-23 11:35:00,,0819.4,4.99,0.00,26.9,26.2,00.0,36.0,28.7,07.2,0000.0,0007.06,0001.60,0001.01
2021-10-23 11:36:00,,0819.4,5.01,0.00,26.9,26.2,00.0,36.0,28.7,07.2,0000.0,0007.03,0001.59,0000.99
2021-10-23 11:37:00,,0819.3,5.00,0.00,26.9,26.1,00.0,36.0,28.6,07.2,0000.0,0007.09,0001.58,0000.98
2021-10-23 11:38:00,,0819.3,5.00,0.00,26.9,26.1,00.0,36.0,28.6,07.2,0000.0,0007.24,0001.61,0000.98
2021-10-23 11:39:00,,0819.4,5.00,0.00,26.9,26.1,00.0,36.0,28.6,07.2,0000.0,0007.72,0001.70,0000.99
2021-10-23 11:40:00,,0819.4,4.99,0.00,26.9,26.1,00.0,36.0,28.6,07.3,0000.0,0007.85,0001.72,0000.98
2021-10-23 11:41:00,,0819.5,5.00,0.00,26.8,26.1,00.0,36.0,28.6,07.5,0000.0,0007.87,0001.74,0000.99
2021-10-23 11:42:00,,0819.4,5.01,0.00,26.9,26.1,00.0,36.0,28.6,07.5,0000.0,0007.89,0001.76,0001.00
2021-10-23 11:43:00,,0819.5,5.01,0.00,26.9,26.1,00.0,36.0,28.6,07.5,0000.0,0007.92,0001.81,0001.00
2021-10-23 11:44:00,,0819.5,5.00,0.00,26.9,26.2,00.0,36.0,28.6,07.5,0000.0,0008.14,0001.69,0000.95
2021-10-23 11:45:00,,0819.5,5.00,0.00,26.9,26.2,00.0,36.0,28.6,07.8,0000.0,0006.70,0001.63,0000.93
2021-10-23 11:46:00,,0819.5,4.99,0.00,26.9,26.2,00.0,36.0,28.6,07.7,0000.0,0005.48,0001.60,0000.92
2021-10-23 11:47:00,,0819.6,5.01,0.00,26.9,26.2,00.0,36.0,28.6,07.8,0000.0,0005.21,0001.62,0000.93
2021-10-23 11:48:00,,0819.7,4.99,0.00,26.9,26.2,00.0,36.0,28.6,07.6,0000.0,0005.29,0001.63,0000.94
2021-10-23 11:49:00,,0819.8,4.99,0.00,26.9,26.2,00.0,36.0,28.6,07.6,0000.0,0005.31,0001.62,0000.95
2021-10-23 11:50:00,,0819.7,5.00,0.00,26.9,26.2,00.0,36.0,28.7,07.7,0000.0,0004.73,0001.59,0000.96
2021-10-23 11:51:00,,0819.8,5.00,0.00,26.9,26.2,00.0,36.0,28.7,07.8,0000.0,0004.80,0001.64,0000.96
2021-10-23 11:52:00,,0819.8,5.00,0.00,26.9,26.2,00.0,36.0,28.6,07.9,0000.0,0004.88,0001.66,0000.96
2021-10-23 11:53:00,,0819.7,5.00,0.00,26.9,26.2,00.0,36.0,28.7,07.9,0000.0,0004.88,0001.63,0000.95
2021-10-23 11:54:00,,0819.7,5.00,0.00,26.9,26.2,00.0,36.0,28.6,07.9,0000.0,0004.96,0001.66,0000.96
2021-10-23 11:55:00,,0819.6,4.99,0.00,26.9,26.2,00.0,36.0,28.6,07.9,0000.0,0003.72,0001.65,0000.96
2021-10-23 11:56:00,,0819.6,5.00,0.00,26.9,26.2,00.0,36.0,28.6,08.0,0000.0,0003.70,0001.65,0000.96
2021-10-23 11:57:00,,0819.6,5.00,0.00,26.9,26.2,00.0,36.0,28.7,08.1,0000.0,0003.62,0001.63,0000.96
2021-10-23 11:58:00,,0819.6,4.99,0.00,26.9,26.2,00.0,36.0,28.7,08.1,0000.0,0003.65,0001.63,0000.95
2021-10-23 11:59:00,,0819.5,5.00,0.00,26.9,26.2,00.0,36.0,28.7,08.1,0000.0,0003.59,0001.63,0000.94
